Theta_e
283 279 276 276 278 278 277 275 274 278 280 279 277 279 282 283 282 282 281 282 283 285 287 288 289 289 290 290 290 290 290 292 292 292 292 292 292 294 296 298 299 300 303 304
280 276 279 282 281 279 277 276 275 278 280 279 277 278 282 282 282 282 283 282 283 284 285 287 288 288 288 288 289 289 291 292 293 293 294 294 294 295 296 299 299 300 300 301
278 279 283 281 279 278 276 276 274 275 278 278 276 276 279 281 281 282 283 283 284 285 285 285 286 287 287 287 288 289 290 292 293 293 294 294 294 294 293 294 294 296 298 298
277 280 281 279 278 278 276 278 278 277 275 273 276 273 277 279 281 282 283 283 284 284 285 286 286 286 286 287 288 289 290 291 293 294 293 291 291 290 292 293 294 294 297 297
277 277 278 279 279 279 278 279 278 277 274 272 272 271 277 278 280 281 282 283 283 284 284 285 286 286 287 288 287 288 289 290 292 292 292 291 291 292 293 292 292 293 294 295
278 281 280 279 281 280 281 278 278 275 273 269 273 272 276 278 280 280 281 283 284 284 284 285 286 287 287 287 287 288 288 289 291 291 291 291 290 291 291 291 291 292 293 293
278 277 278 280 277 279 279 276 271 270 269 271 273 272 278 281 282 282 283 283 283 283 283 284 285 285 286 286 287 287 288 288 290 290 290 291 291 291 290 291 291 291 291 291
273 273 277 279 277 275 275 275 272 267 269 272 275 272 279 282 283 283 283 282 283 284 284 284 285 285 285 286 285 286 287 288 289 290 291 291 291 290 289 289 290 290 291 291
271 275 277 279 278 277 276 272 275 270 267 268 273 276 281 283 282 282 283 283 283 284 284 285 285 285 285 284 285 285 286 289 289 290 290 289 289 288 288 289 289 291 292 294
276 272 277 278 278 278 276 279 272 270 265 264 272 274 278 281 280 282 281 282 283 283 284 285 284 284 284 284 285 285 287 287 289 289 288 288 289 289 290 289 289 291 292 294
270 274 274 275 272 274 274 272 272 271 272 268 267 273 280 281 282 282 282 282 283 283 283 284 284 284 284 284 284 285 286 287 287 288 288 288 288 289 290 290 290 290 290 291
277 271 271 272 275 277 276 275 275 270 268 270 272 272 282 282 282 281 282 283 282 283 283 283 283 283 283 283 284 285 286 286 287 287 287 286 287 289 289 289 290 290 290 291
278 271 266 271 273 275 270 276 277 275 273 267 267 275 281 280 280 281 281 282 282 282 282 282 282 282 283 282 284 285 285 285 286 285 285 285 286 287 287 287 288 289 289 289
282 273 273 273 273 271 267 268 275 272 267 271 273 279 283 284 282 283 283 282 282 281 282 282 282 282 282 283 284 284 284 284 284 285 284 284 284 284 285 285 286 286 287 287
276 270 269 272 275 271 272 270 272 273 276 273 278 277 281 283 281 283 281 281 281 281 282 282 282 282 281 283 283 283 283 283 283 283 283 283 283 283 283 284 284 285 285 286
276 267 269 268 274 274 272 273 275 276 276 277 277 277 283 284 285 283 282 281 281 282 282 282 282 282 282 284 283 283 282 282 284 282 282 282 282 282 282 283 284 284 284 284
274 269 266 265 272 272 269 273 274 275 276 277 274 279 285 282 282 282 282 281 282 282 283 282 282 282 283 283 282 280 280 281 282 282 282 282 281 281 282 283 283 283 283 283
276 272 272 264 265 263 280 276 276 277 279 279 280 281 283 283 281 282 282 283 284 283 282 282 282 281 283 282 281 280 280 281 281 281 282 282 281 281 282 282 282 282 282 282
279 277 271 268 258 271 278 279 274 273 278 281 280 281 283 281 281 283 286 284 284 283 283 282 282 283 282 281 280 279 279 281 281 281 281 281 281 281 282 281 281 282 281 281
279 279 275 259 263 264 277 277 279 277 275 283 284 283 282 280 275 281 284 284 283 283 283 282 282 283 282 281 280 280 281 281 280 280 280 281 280 281 281 281 281 281 282 281
270 269 272 268 264 269 277 278 279 275 281 283 282 282 280 279 284 285 284 283 283 283 282 282 283 282 282 281 280 281 281 280 281 277 278 279 281 281 281 280 281 282 281 281
271 270 267 268 265 264 278 278 276 283 282 283 280 281 281 283 282 283 283 282 282 282 280 282 281 282 282 280 280 280 280 281 278 275 276 277 280 282 282 279 280 282 281 280
275 275 270 274 273 279 281 281 283 281 282 284 282 282 282 282 282 282 282 281 280 280 281 280 281 279 274 274 277 280 281 280 277 272 274 276 282 282 282 281 281 280 281 280
275 278 275 275 281 279 279 282 283 282 282 283 282 282 282 282 282 282 282 281 280 279 279 278 279 278 277 277 277 278 281 279 270 270 271 274 279 282 283 284 283 282 280 279
278 278 275 274 281 281 282 282 285 285 284 283 283 283 282 281 282 282 282 282 282 282 280 278 280 280 279 279 276 275 275 277 281 272 269 270 272 280 281 282 284 282 283 283
278 276 278 278 283 285 286 286 285 282 283 285 284 283 282 282 283 283 282 283 282 280 280 278 279 280 279 279 278 276 275 275 281 279 273 272 272 278 280 279 281 286 285 285
Wind_Speed
5 9 4 0 4 3 4 2 2 4 3 6 4 14 22 11 10 11 9 9 9 9 7 6 6 6 7 7 6 8 8 9 4 3 4 4 4 5 4 4 7 8 7 7
8 4 3 2 2 2 2 1 4 6 2 4 7 20 14 7 8 10 11 9 10 6 6 8 8 7 7 7 8 8 8 8 6 4 4 4 5 5 5 6 7 8 9 8
6 3 1 1 4 3 3 1 2 3 10 2 8 9 6 2 2 3 6 7 7 10 9 8 8 8 8 8 8 8 9 8 7 7 4 4 5 4 5 6 6 6 7 8
5 1 1 1 2 1 1 2 2 2 6 4 5 7 7 4 6 4 7 9 9 9 6 6 7 7 8 9 7 8 8 8 8 7 6 7 7 11 9 9 8 7 8 9
1 2 1 1 2 1 2 1 1 2 2 3 1 2 11 4 6 7 10 10 9 8 7 8 8 8 9 7 7 8 8 8 8 7 7 6 12 11 10 8 9 9 8 9
3 2 3 2 2 1 2 2 3 4 2 3 2 3 9 5 6 3 5 9 9 7 7 7 8 7 6 7 7 7 8 7 7 7 7 10 13 12 11 11 10 9 9 8
5 2 1 1 1 3 3 3 4 7 5 6 2 1 15 5 7 7 6 7 7 6 6 7 8 7 7 8 8 7 7 8 8 8 8 11 11 12 12 13 12 13 10 10
5 6 0 3 2 1 2 2 6 5 3 5 4 9 10 7 7 7 7 5 6 7 5 7 8 7 8 7 8 7 8 10 9 10 12 8 9 6 10 13 12 12 11 11
5 3 0 3 2 1 2 2 2 6 2 3 5 10 12 6 10 6 7 7 8 7 7 8 8 7 7 7 7 7 8 11 12 12 11 7 8 11 12 15 14 12 13 13
3 3 2 2 0 2 1 3 4 4 1 6 6 7 11 6 4 8 7 9 8 5 8 8 7 7 5 6 5 7 8 11 13 12 7 9 11 14 15 12 14 15 15 14
4 5 2 4 4 6 1 0 4 3 4 5 4 9 9 8 8 10 10 9 8 8 8 8 7 7 5 5 6 7 8 12 12 10 11 11 12 13 13 12 12 13 14 16
6 6 4 7 1 1 2 3 5 6 6 4 1 15 5 8 7 6 8 8 6 7 8 8 7 6 6 6 6 7 10 10 11 11 13 13 13 13 14 14 15 15 15 15
8 1 2 7 4 4 3 5 4 4 3 7 5 12 1 2 4 6 9 8 9 8 8 8 6 6 5 6 6 7 9 10 10 13 15 14 15 16 17 17 17 17 16 15
5 2 8 9 7 6 3 5 6 7 4 5 15 29 25 18 11 11 10 9 9 9 9 7 6 5 5 5 6 7 9 7 12 14 15 15 15 17 17 16 17 17 16 17
5 6 4 4 4 4 6 6 10 14 16 11 31 18 29 13 10 13 8 7 9 9 8 7 5 5 4 6 6 6 7 10 11 13 13 13 14 17 16 16 16 16 16 15
1 2 3 5 1 7 11 11 15 20 19 23 31 33 37 28 23 19 14 9 10 9 9 8 6 5 4 5 6 6 8 10 11 12 13 14 16 17 17 16 16 16 15 14
7 7 4 7 4 5 12 19 25 13 7 19 21 34 23 19 14 13 10 9 11 11 8 7 6 4 4 5 4 5 7 9 10 12 12 13 15 15 16 16 15 14 15 15
8 6 3 4 3 3 9 3 8 23 15 22 21 25 23 14 6 8 9 12 14 9 8 6 5 3 4 2 3 4 5 7 10 11 11 12 14 13 13 13 13 14 13 14
3 5 4 4 5 10 12 10 11 12 14 26 29 30 27 2 6 25 16 15 16 8 8 5 4 4 2 3 3 4 5 8 8 11 11 12 15 13 13 13 12 12 13 12
5 2 5 4 5 11 5 3 6 5 14 22 18 22 8 8 3 8 5 6 8 8 4 6 6 3 3 3 1 2 5 7 7 10 10 10 13 11 13 13 12 12 11 11
7 2 16 7 5 15 13 6 5 5 11 2 6 7 9 8 13 3 6 6 7 6 7 5 6 6 5 4 3 1 4 6 7 7 7 8 11 11 11 10 8 10 11 10
14 14 7 5 4 19 10 8 9 8 3 3 2 5 11 15 2 5 6 7 8 8 6 7 6 6 6 5 4 2 4 6 5 5 5 7 9 9 9 9 9 10 11 10
8 13 14 18 18 4 18 8 16 1 6 6 4 5 10 8 9 7 7 7 8 8 7 5 7 5 4 5 5 4 4 5 5 3 4 6 6 10 9 10 11 8 10 8
7 7 5 6 18 23 15 17 11 8 17 10 6 5 6 8 7 8 8 7 7 6 7 5 6 6 7 7 7 7 4 4 2 2 3 4 5 8 10 7 7 8 8 8
8 15 10 7 20 9 13 20 22 21 14 12 12 14 14 9 11 9 9 10 10 8 5 6 9 8 9 7 7 6 6 6 4 2 1 3 2 4 5 6 7 7 7 7
9 12 12 16 13 14 9 15 21 17 22 21 14 12 14 12 15 12 11 13 9 8 6 6 9 8 8 8 8 7 7 7 7 4 2 1 1 1 2 3 4 13 11 15
Wind_Direction
14 65 83 82 8 123 114 112 293 271 54 337 227 286 279 243 232 238 240 225 234 243 261 261 273 284 286 292 297 300 308 297 306 298 301 294 282 290 256 253 265 269 268 277
28 89 209 272 8 116 87 70 313 284 337 360 332 293 290 264 240 218 202 217 229 244 274 277 276 282 281 278 284 291 286 285 287 268 262 254 274 271 274 279 269 266 271 271
113 152 212 101 44 84 49 64 64 262 321 239 307 291 332 341 264 201 210 206 219 224 247 263 274 270 292 290 276 283 280 283 286 285 292 284 280 273 291 297 276 249 255 268
84 225 138 78 90 97 156 139 119 307 21 290 19 283 303 313 305 230 225 217 228 237 252 256 272 292 292 281 286 282 283 294 292 299 299 299 303 304 300 297 288 278 263 264
182 144 157 220 181 138 157 133 162 131 91 11 323 50 271 338 279 244 228 231 240 244 236 256 274 278 283 297 297 293 300 296 300 307 307 303 302 297 302 293 285 286 284 275
83 308 24 5 314 262 23 95 67 54 73 22 267 131 278 213 208 260 231 231 233 229 238 263 272 280 300 309 312 314 310 304 307 301 292 295 296 298 302 300 296 296 296 296
357 343 309 70 337 355 56 62 332 355 8 226 352 274 246 257 233 210 222 233 215 226 254 278 292 302 309 316 314 315 321 301 294 287 286 293 290 299 299 306 301 299 297 297
142 314 110 4 87 235 50 146 151 232 262 283 329 241 254 214 260 239 205 205 208 231 277 289 286 297 302 307 307 318 305 300 296 297 297 288 294 305 304 300 300 295 290 286
132 260 41 54 356 97 152 84 185 101 64 30 239 286 292 260 247 206 221 196 223 250 287 292 296 296 290 311 315 315 310 305 308 298 301 297 300 301 302 304 299 293 295 293
234 48 357 350 115 35 282 160 70 6 319 286 279 273 246 282 255 232 226 224 234 259 292 297 284 287 302 312 317 316 301 296 295 290 286 296 295 304 303 298 293 294 292 297
131 108 281 30 201 183 138 200 53 114 154 196 289 252 216 230 228 230 234 233 234 257 269 280 281 288 300 304 314 298 299 297 297 294 297 297 304 296 290 289 288 290 292 291
187 140 193 220 280 324 294 211 162 128 245 242 213 268 262 233 251 230 240 237 244 252 266 276 273 289 294 304 299 295 303 296 304 307 308 305 300 300 295 293 293 293 290 288
187 227 41 335 349 0 204 197 187 104 101 207 147 262 322 275 241 263 257 262 271 267 285 282 275 283 297 308 307 304 304 301 312 315 314 314 314 316 310 306 304 300 296 291
130 139 173 190 196 131 194 227 191 146 152 191 225 273 270 258 272 279 261 252 266 271 271 261 279 280 294 306 304 307 309 307 317 316 323 321 321 317 312 307 306 303 299 298
135 207 168 258 206 178 205 184 195 204 209 205 267 243 265 270 265 277 246 265 265 271 279 273 268 277 301 321 317 309 313 319 321 321 321 323 319 317 312 309 307 303 300 299
186 227 117 290 241 218 255 214 232 227 228 246 256 274 261 279 280 277 277 267 269 274 264 271 272 286 323 313 298 319 322 322 322 324 322 324 325 322 319 316 315 311 313 312
155 140 111 264 354 334 291 222 208 220 188 223 241 242 274 269 261 265 255 250 256 245 253 265 252 266 282 290 312 322 321 315 322 324 323 328 326 321 329 332 322 324 330 329
152 146 140 219 28 256 245 191 193 217 232 223 253 257 254 260 272 267 244 252 263 250 254 244 230 246 261 271 319 326 326 311 323 322 330 330 321 324 335 332 334 337 336 333
177 140 151 185 203 300 283 220 173 176 251 231 234 250 255 232 339 287 247 224 235 229 231 211 190 202 215 290 330 330 320 316 329 335 338 334 328 329 337 337 344 348 338 339
159 42 174 119 184 229 214 167 133 132 282 223 216 243 250 125 182 255 196 179 198 200 188 186 197 195 205 245 210 325 329 319 334 329 329 331 330 335 345 343 353 356 342 340
145 169 210 201 242 277 241 139 165 120 252 179 182 218 150 184 208 199 156 173 178 192 208 184 185 210 214 190 171 352 310 310 320 306 315 339 336 346 350 337 349 355 346 338
164 158 179 136 194 272 152 87 190 219 283 245 181 197 198 223 286 226 210 199 192 207 206 193 198 219 209 176 165 210 272 291 309 306 334 341 346 354 359 346 351 3 353 352
197 183 174 187 207 225 193 186 216 244 234 229 211 195 213 220 245 216 243 233 224 215 213 185 201 210 225 185 187 197 232 273 305 325 6 348 5 2 14 19 6 5 4 8
264 173 201 105 241 228 212 234 244 220 229 239 234 208 192 219 232 249 245 238 227 225 223 181 181 205 227 202 198 208 183 237 261 342 18 358 5 5 31 33 17 21 19 6
181 146 197 266 279 323 251 218 235 250 252 249 231 223 230 226 242 226 247 249 241 229 203 182 197 208 221 197 201 202 190 198 197 239 46 8 23 17 348 26 41 33 22 35
183 181 184 222 223 211 250 210 218 225 239 243 247 244 238 215 237 239 237 246 243 225 210 200 206 200 208 198 202 194 187 183 187 201 203 130 49 19 4 339 30 49 48 47